Regional Weather Roundup
Issued by NWS

Home | Current Version | Previous Version | Graphics & Text | Print | Product List | Glossary On
Versions: 1 2 3 4 5 6 7 8 9 10 11 12 13 14 15 16 17 18 19 20 21 22 23 24 25 26 27 28 29 30 31 32 33 34 35 36 37 38 39 40 41 42 43 44 45 46 47 48 49 50
000
ASUS43 KMPX 200501
RWRMN
WEATHER ROUNDUP FOR MINNESOTA
NATIONAL WEATHER SERVICE TWIN CITIES/CHANHASSEN MN
1200 AM CDT WED AUG 20 2014


NOTE: "FAIR" INDICATES FEW OR NO CLOUDS BELOW 12,000 FEET WITH NO
SIGNIFICANT WEATHER AND/OR OBSTRUCTIONS TO VISIBILITY. N/A MEANS
CURRENT SKY AND/OR WEATHER CONDITIONS ARE NOT AVAILABLE.

MNZ060>063-068>070-200600-
   Twin Cities Metro

CITY           SKY/WX    TMP DP  RH WIND       PRES   REMARKS
TWIN CITIES    PTCLDY    72  65  78 CALM      29.79S
ST PAUL        PTCLDY    67  66  97 CALM      29.79S
CRYSTAL        CLEAR     69  65  86 CALM      29.78S
BLAINE         CLEAR     64  64 100 CALM      29.80S
LAKEVILLE      PTCLDY    64  64 100 CALM      29.80S
EDEN PRAIRIE   CLEAR     68  66  93 CALM      29.79R
SOUTH ST PAUL  CLEAR     68  66  93 CALM      29.79S
LAKE ELMO      FOG       63  63 100 CALM      29.81S VSB 1/4
$$
MNZ001>005-007-008-013>017-022>024-027-028-200600-
   Northwest Minnesota

CITY           SKY/WX    TMP DP  RH WIND       PRES   REMARKS
BEMIDJI        CLEAR     59  58  98 E3        29.81F FOG
HALLOCK        CLEAR     66  63  88 E6        29.76S
ROSEAU         CLEAR     64  59  82 SE5       29.80S
WARROAD        PTCLDY    63  59  88 SE6       29.82R
THIEF RVR FALL CLEAR     63  61  94 E7        29.79S
CROOKSTON      CLEAR     64  61  88 SE5       29.77F
FOSSTON        CLEAR     57  54  88 CALM      29.80F HAZE
DETROIT LAKES  CLEAR     64  63  94 CALM      29.82S
MOORHEAD       CLEAR     70  68  94 SE3       29.78S
PARK RAPIDS    CLEAR     65  62  90 CALM      29.81S
MAHNOMEN       FAIR      64  61  90 SE5       29.79S
$$
MNZ006-009>011-018-025>026-200600-
   North Central Minnesota

CITY           SKY/WX    TMP DP  RH WIND       PRES   REMARKS
BAUDETTE       CLEAR     62  60  93 CALM      29.81S
FLAG ISLAND    CLEAR     68  63  83 CALM      29.80R
INTL FALLS     CLEAR     51  51 100 CALM      29.82R
WASKISH        CLEAR     59  57  94 CALM      29.82S FOG
BIG FORK       CLEAR     54  52  94 CALM      29.83F
LONGVILLE      CLEAR     59  57  94 CALM      29.82S
GRAND RAPIDS   CLEAR     57  55  94 CALM      29.83S
CRANE LAKE     CLEAR     52  52 100 CALM      29.84S FOG
ORR            CLEAR     59  55  88 CALM      29.81S
COOK           CLEAR     55  54  94 CALM      29.83S
WALKER         FAIR      62  61  97 CALM      29.82R
$$
MNZ012-019>021-037-200600-
   Northeast Minnesota

CITY           SKY/WX    TMP DP  RH WIND       PRES   REMARKS
DULUTH         CLOUDY    64  60  87 E3        29.82S
ELY            CLOUDY    61  59  94 CALM      29.83S
HIBBING        MOCLDY    58  56  93 CALM      29.83R
EVELETH        CLOUDY    61  61 100 CALM      29.83S
DULUTH HARBOR  CLOUDY    63  61  94 NE8       29.82R
TWO HARBORS    DRZL/FOG  59  54  82 E6        29.81S VSB 1/4
SILVER BAY     CLOUDY    57  57 100 CALM      29.81S
GRAND MARAIS     N/A     61  59  93 W3        29.80S
G MARAIS ARPRT CLOUDY    57  54  88 NW3       29.84S
$$
MNZ029>031-032-039>041-046>048-054>057-064-200600-
   West Central Minnesota

CITY           SKY/WX    TMP DP  RH WIND       PRES   REMARKS
FERGUS FALLS   CLEAR     68  61  77 E3        29.79S
WHEATON        CLEAR     64  63  94 SE6       29.81S
MORRIS         CLEAR     64  64 100 SE5       29.80R
ALEXANDRIA     CLEAR     65  62  90 CALM      29.83R
ELBOW LAKE     FAIR      68  62  83 SE3       29.80R
WADENA         CLEAR     64  61  88 CALM      29.81S
GLENWOOD       CLEAR     66  63  88 CALM      29.82S
APPLETON       CLEAR     66  64  94 CALM      29.80R
BENSON         FOG       63  63 100 CALM      29.80S VSB 1/2
ORTONVILLE     CLEAR     68  64  88 CALM      29.79F
MADISON          N/A     68  66  94 CALM      29.80S
WILLMAR        FAIR      64  63  94 CALM      29.82S
$$
MNZ033>034-036-042>043-049>051-058-059-200600-
   Central Minnesota

CITY           SKY/WX    TMP DP  RH WIND       PRES   REMARKS
ST CLOUD       CLEAR     66  63  90 CALM      29.80S
SAUK CENTRE    FAIR      60  60  97 CALM      29.82R
PAYNESVILLE    CLEAR     61  61  99 CALM      29.82R
AITKIN         CLEAR     64  57  77 CALM      29.81S
PINE RIVER     CLEAR     61  61 100 CALM      29.86R
BRAINERD       FOG       61  60  97 CALM      29.82S VSB 1
STAPLES        CLEAR     63  61  94 CALM      29.81S
LONG PRAIRIE   FAIR      63  61  94 CALM      29.82S
LITTLE FALLS   CLEAR     61  59  94 CALM      29.81S
LITCHFIELD     CLEAR     68  66  94 CALM      29.81S
BUFFALO        CLEAR     65  62  87 CALM      29.81S
MAPLE LAKE     CLEAR     65  64  97 CALM      29.82R
$$
MNZ037-044-045-052-053-200600-
   East Central Minnesota

CITY           SKY/WX    TMP DP  RH WIND       PRES   REMARKS
PRINCETON      FAIR      66  64  94 CALM      29.80S
MORA           CLEAR     63  61  94 CALM      29.83R
CAMBRIDGE      CLEAR     66  57  72 CALM      29.79S
RUSH CITY      CLEAR     65  63  93 CALM      29.81S
MOOSE LAKE     FOG       59  59 100 CALM      29.81S VSB 1/2
HINCKLEY       CLOUDY    63  63 100 N5        29.81F
CLOQUET        PTCLDY    59  57  94 CALM      29.83S FOG
MCGREGOR       CLEAR     61  59  94 CALM      29.83S
$$
MNZ071>073-080-081-089-090-097-098-200600-
   Southwest Minnesota

CITY           SKY/WX    TMP DP  RH WIND       PRES   REMARKS
MONTEVIDEO     MOCLDY    68  66  94 CALM      29.81S
GRANITE FALLS  PTCLDY    64  63  97 CALM      29.82S
CANBY          PTCLDY    66  65  96 CALM      29.82S
MARSHALL       PTCLDY    66  63  88 S3        29.81S
REDWOOD FALLS  CLEAR     67  63  87 SW3       29.80S
OLIVIA         CLEAR     68  63  83 CALM      29.80S
PIPESTONE      PTCLDY    64  61  88 S3        29.83S
WINDOM         CLEAR     64  63  94 CALM      29.83F
WORTHINGTON    PTCLDY    66   9  10 SW5       29.85S
JACKSON        CLEAR     66  63  88 CALM      29.84S
TRACY          PTCLDY    69  65  84 CALM      29.83S
SLAYTON        PTCLDY    66  62  88 CALM      29.84F
$$
MNZ065>067-074>077-082>085-091>093-200600-
   South Central Minnesota

CITY           SKY/WX    TMP DP  RH WIND       PRES   REMARKS
MANKATO        CLEAR     66  63  88 SW3       29.81R
NEW ULM        CLEAR     64  64 100 CALM      29.81R
ST JAMES       CLEAR     66  63  88 CALM      29.83R
FAIRMONT       CLEAR     68  63  83 CALM      29.83R
GLENCOE        CLEAR     65  61  85 CALM      29.80R
FARIBAULT      CLEAR     68  63  83 CALM      29.81R HAZE
OWATONNA       CLEAR     64  61  88 CALM      29.82R
WASECA         CLEAR     61  55  82 CALM      29.83R
ALBERT LEA     CLEAR     66  66 100 CALM      29.82S FOG
$$
MNZ078>079-086>088-094>096-200600-
   Southeast Minnesota

CITY           SKY/WX    TMP DP  RH WIND       PRES   REMARKS
ROCHESTER      CLEAR     66  62  87 W5        29.82S
RED WING       CLEAR     64  63  94 CALM      29.78F
STANTON        CLEAR     66  64  92 CALM      29.79R FOG
DODGE CENTER   CLEAR     64  63  94 SW5       29.82R
WINONA         CLEAR     66  64  94 CALM      29.79S
AUSTIN         CLEAR     64  64 100 CALM      29.82S
PRESTON        CLEAR     64  65 100 SW5       29.82R
$$
ABBREVIATIONS USED IN REMARKS
   TC - TEMPERATURES IN CELSIUS
  WCI - WIND CHILL INDEX
   HX - HEAT INDEX
  VSB - VISIBILITY
$$


USA.gov is the U.S. government's official web portal to all federal, state and local government web resources and services.